2021-059AG (48909 NORAD) Tracking and Keplerian Element Data

This shows tracking and keplerian element data for the satellite.

Feedback or suggestion? Click here.




ElementValue
Catalog48909
Name2021-059AG
Epoch Orbit1383
Epoch Day268.31975471
Epoch Year2021
RAAN35.6995
Inclination97.5144
Eccentricity0.0009679
Argument of Perigee293.8876
Mean Anonmoly66.134
Mean Motion15.12611531
Decay Rate1.223E-05
L11 48909U 21059AG 21268.31975471 .00001223 00000-0 73722-4 0 9996
L22 48909 97.5144 35.6995 0009679 293.8876 66.1340 15.12611531 13834

Live tracking and technical data element details for 2021-059AG (NORAD 48909). 2021-059AG can be tracked NOW for your location showing map with azimuth and elevation plus other details from your city location.

Track the satellite on the map from your city or location and see movement details for azimuth, elevation, latitude, longitude, range, height, and movement on the map or in text.







IsCatalogInMostPopularTable: catalog: 48909, numindb: 13
Update: records affected: 1



GetName: 48909 2021-059AG

Hit Count: updated at: Sun, 26 Sep 2021 16:23:46 GMT